Location: Belfast
(54.5830°N, 5.9330°W)
Time: 15:14:08
(UTC+00:00)

ISS - Visible Passes

Search period start: 27 January 2022 00:00
Search period end: 06 February 2022 00:00
Orbit: 413 x 422 km, 51.6° (Epoch: 27 January)

Date Brightness Start Highest point End Pass type
(mag) Time Alt. Az. Time Alt. Az. Time Alt. Az.
27 Jan -3.1 18:02:41 10° WSW 18:05:55 48° S 18:08:30 15° E visible
27 Jan -2.2 19:39:13 10° W 19:41:26 33° WSW 19:41:26 33° WSW visible
28 Jan -3.1 18:51:09 10° W 18:54:25 48° S 18:55:22 35° SE visible
28 Jan -0.4 20:28:00 10° W 20:28:18 12° W 20:28:18 12° W visible
29 Jan -3.1 18:03:07 10° WSW 18:06:22 51° S 18:09:19 12° ESE visible
29 Jan -2.0 19:39:49 10° W 19:42:15 28° SW 19:42:15 28° SW visible
30 Jan -2.6 18:51:41 10° W 18:54:48 37° SSW 18:56:15 24° SSE visible
30 Jan -0.4 20:29:09 10° WSW 20:29:11 10° WSW 20:29:11 10° WSW visible
31 Jan -2.8 18:03:35 10° W 18:06:47 43° SSW 18:09:58 10° ESE visible
31 Jan -1.5 19:40:36 10° WSW 19:43:02 19° SSW 19:43:15 18° SSW visible
01 Feb -1.7 18:52:18 10° W 18:55:04 24° SSW 18:57:25 12° SSE visible
02 Feb -2.0 18:04:04 10° W 18:07:03 31° SSW 18:10:03 10° SE visible
03 Feb -0.9 18:53:17 10° WSW 18:55:08 14° SW 18:56:59 10° S visible
04 Feb -1.1 18:04:43 10° WSW 18:07:10 19° SSW 18:09:37 10° SSE visible
